K1TTC Weather Reports


time (UTC)temp
C
wind
direction
speed
KPH
gust
KPH
rain 1hr
cm
rain 24hr
cm
rain mn
cm
humidity
%
barometer
mb
20260505024244 15 204 8.0 16.1 0.00 0.00 0.00 45 1011.2
20260505023242 15 191 8.0 19.3 0.00 0.00 0.00 44 1011.1
20260505022244 16 172 6.4 14.5 0.00 0.00 0.00 43 1011.0
20260505021243 16 232 8.0 17.7 0.00 0.00 0.00 43 1011.2
20260505020249 16 180 8.0 19.3 0.00 0.00 0.00 42 1011.1
20260505015245 16 168 6.4 14.5 0.00 0.00 0.00 42 1011.0
20260505014246 16 170 8.0 22.5 0.00 0.00 0.00 41 1011.0
20260505013243 17 220 11.3 25.7 0.00 0.00 0.00 41 1010.8
20260505012250 17 207 8.0 22.5 0.00 0.00 0.00 40 1010.7
20260505011243 17 191 11.3 24.1 0.00 0.00 0.00 40 1010.6
20260505010244 17 174 9.7 24.1 0.00 0.00 0.00 39 1010.5
20260505005244 17 191 9.7 24.1 0.00 0.00 0.00 38 1010.4
20260505004242 18 213 11.3 27.4 0.00 0.00 0.00 38 1010.1
20260505003243 18 154 9.7 22.5 0.00 0.00 0.00 37 1009.7
20260505002243 18 230 11.3 27.4 0.00 0.00 0.00 36 1009.4
20260505001243 18 213 12.9 29.0 0.00 0.00 0.00 35 1009.0
20260505000243 19 170 11.3 33.8 0.00 0.00 0.00 34 1008.8
20260504235243 20 162 14.5 29.0 0.00 0.00 0.00 32 1008.6
20260504234243 20 198 8.0 32.2 0.00 0.00 0.00 30 1008.5
20260504233242 21 216 8.0 17.7 0.00 0.00 0.00 27 1008.2
20260504232238 21 217 4.8 14.5 0.00 0.00 0.00 27 1008.0
20260504231241 21 217 4.8 11.3 0.00 0.00 0.00 26 1008.0
20260504230239 21 245 8.0 19.3 0.00 0.00 0.00 26 1007.8
20260504225329 21 305 4.8 14.5 0.00 0.00 0.00 26 1007.8
20260504224442 21 265 8.0 17.7 0.00 0.00 0.00 25 1007.7
20260504223238 22 265 9.7 19.3 0.00 0.00 0.00 24 1007.6
20260504222236 22 253 11.3 27.4 0.00 0.00 0.00 25 1007.6
20260504221236 22 191 9.7 25.7 0.00 0.00 0.00 25 1007.6
20260504220235 22 223 6.4 17.7 0.00 0.00 0.00 25 1007.6
20260504215236 22 278 9.7 30.6 0.00 0.00 0.00 25 1007.7
20260504214234 22 255 8.0 20.9 0.00 0.00 0.00 24 1007.8
20260504213234 22 281 6.4 17.7 0.00 0.00 0.00 24 1007.8
20260504212233 22 216 8.0 29.0 0.00 0.00 0.00 24 1007.7
20260504211233 22 246 9.7 24.1 0.00 0.00 0.00 24 1007.8
20260504210232 22 257 9.7 20.9 0.00 0.00 0.00 23 1007.7
20260504205233 22 203 9.7 20.9 0.00 0.00 0.00 24 1007.8
20260504204230 22 265 11.3 25.7 0.00 0.00 0.00 24 1007.7
20260504203230 22 271 12.9 27.4 0.00 0.00 0.00 23 1007.8
20260504202230 22 276 11.3 24.1 0.00 0.00 0.00 24 1007.8
20260504201231 22 232 11.3 29.0 0.00 0.00 0.00 23 1007.7
20260504200229 22 236 14.5 40.2 0.00 0.00 0.00 22 1007.7
20260504195230 23 226 11.3 25.7 0.00 0.00 0.00 22 1007.8
20260504194230 23 239 11.3 24.1 0.00 0.00 0.00 23 1007.8
20260504193229 22 240 14.5 29.0 0.00 0.00 0.00 22 1007.7
20260504192231 22 211 11.3 29.0 0.00 0.00 0.00 21 1007.8
20260504191230 22 259 12.9 33.8 0.00 0.00 0.00 21 1007.7
20260504190230 22 227 12.9 32.2 0.00 0.00 0.00 22 1007.8
20260504185228 22 229 11.3 24.1 0.00 0.00 0.00 22 1008.0
20260504184229 22 265 9.7 29.0 0.00 0.00 0.00 22 1008.2
20260504183227 22 154 11.3 33.8 0.00 0.00 0.00 22 1008.3
20260504182228 22 233 14.5 38.6 0.00 0.00 0.00 22 1008.3
20260504181228 22 192 12.9 37.0 0.00 0.00 0.00 22 1008.1
20260504180229 22 234 12.9 35.4 0.00 0.00 0.00 22 1008.2
20260504175225 22 262 11.3 27.4 0.00 0.00 0.00 24 1008.3
20260504174334 22 170 9.7 22.5 0.00 0.00 0.00 24 1008.2
20260504173224 21 269 14.5 40.2 0.00 0.00 0.00 26 1008.5
20260504172225 21 235 12.9 33.8 0.00 0.00 0.00 25 1008.5
20260504171224 21 214 12.9 38.6 0.00 0.00 0.00 25 1008.7
20260504170226 21 266 14.5 32.2 0.00 0.00 0.00 25 1008.7
20260504160224 20 219 14.5 30.6 0.00 0.00 0.00 26 1009.1
20260504150224 18 245 12.9 32.2 0.00 0.00 0.00 31 1009.9
20260504141223 17 271 11.3 25.7 0.00 0.00 0.00 34 1010.5
20260504140220 16 201 12.9 30.6 0.00 0.00 0.00 36 1010.6
20260504130213 15 259 8.0 22.5 0.00 0.00 0.00 39 1011.2
20260504120203 10 213 6.4 19.3 0.00 0.00 0.00 49 1011.7
20260504110203 7 203 0.0 0.0 0.00 0.00 0.00 55 1011.8
20260504100157 7 203 0.0 0.0 0.00 0.00 0.00 54 1011.7
20260504080409 6 214 1.6 4.8 0.00 0.00 0.00 56 1011.6
20260504050143 2 284 0.0 3.2 0.00 0.00 0.00 61 1011.6
20260504045143 2 284 0.0 0.0 0.00 0.00 0.00 61 1011.6
20260504044143 2 284 0.0 0.0 0.00 0.00 0.00 61 1011.6
20260504043143 2 284 0.0 0.0 0.00 0.00 0.00 60 1011.4
20260504042143 2 284 0.0 0.0 0.00 0.00 0.00 60 1011.4
20260504041140 2 284 0.0 0.0 0.00 0.00 0.00 59 1011.5
20260504040141 2 284 0.0 0.0 0.00 0.00 0.00 59 1011.3
20260504035134 3 284 0.0 0.0 0.00 0.00 0.00 58 1011.3
20260504034136 3 284 0.0 0.0 0.00 0.00 0.00 57 1011.3
20260504033136 3 284 0.0 0.0 0.00 0.00 0.00 57 1011.2
20260504032130 3 284 0.0 0.0 0.00 0.00 0.00 57 1011.2
20260504031132 3 284 0.0 0.0 0.00 0.00 0.00 56 1011.2
20260504030131 4 284 0.0 0.0 0.00 0.00 0.00 55 1011.2